This demonstration page uses our WeatherBlox Daily Observations layout. Learn more.

Left ArrowRight Arrow

Hourly Observations for May 25, 2022

Temp ( °F °C ) Dew Point ( °F °C ) Humidity (%) Winds ( mph kmh ) Pressure ( in mb ) Visibility ( mi km ) Precip ( " mm )
12:14 am 00:14 Cloudy 63 17.2 62 16.7 97 97 SE 13 20 29.77 1008 10 16 0.00 0.00
12:52 am 00:52 Cloudy 63 17.2 62 16.7 97 97 SSE 10 17 29.76 1008 10 16 0.00 0.00
1:31 am 01:31 Cloudy 63 17.2 62 16.7 97 97 SSE 9 15 29.76 1008 10 16 0.00 0.00
1:38 am 01:38 Cloudy 63 17.2 62 16.7 97 97 SSE 10 17 29.76 1008 10 16 0.00 0.00
1:52 am 01:52 Cloudy with Light Rain 63 17.2 62 16.7 97 97 SSE 12 19 29.75 1008 10 16 0.00 0.00
2:19 am 02:19 Cloudy with Light Rain 62 16.7 61 16.1 96 96 SSE 9 15 29.74 1007 10 16 0.01 0.25
2:52 am 02:52 Cloudy 62 16.7 61 16.1 96 96 SE 12 19 29.72 1006 10 16 0.01 0.25
3:52 am 03:52 Cloudy 62 16.7 61 16.1 96 96 SE 9 15 29.71 1006 10 16 0.00 0.00
4:37 am 04:37 Cloudy 62 16.7 61 16.1 96 96 SE 9 15 29.69 1005 10 16 0.00 0.00
4:45 am 04:45 Cloudy 62 16.7 61 16.1 96 96 ESE 12 19 29.69 1005 10 16 0.00 0.00
4:52 am 04:52 Cloudy 63 17.2 61 16.1 93 93 SE 9 15 29.69 1005 10 16 0.00 0.00
5:39 am 05:39 Cloudy 64 17.8 62 16.7 93 93 SE 16 26 29.68 1005 10 16 0.00 0.00
5:52 am 05:52 Cloudy 64 17.8 63 17.2 96 96 SE 13 20 29.68 1005 10 16 0.00 0.00
6:10 am 06:10 Cloudy 64 17.8 63 17.2 96 96 SE 15 24 29.67 1005 10 16 0.00 0.00
6:52 am 06:52 Cloudy 64 17.8 63 17.2 96 96 SE 12 19 29.67 1005 10 16 0.00 0.00
7:52 am 07:52 Cloudy 65 18.3 63 17.2 93 93 SSE 15 24 29.66 1005 10 16 0.00 0.00
8:52 am 08:52 Cloudy with Light Rain 65 18.3 63 17.2 93 93 SSE 12 19 29.65 1004 4 6 0.00 0.00
9:00 am 09:00 Cloudy with Light Rain 65 18.3 63 17.2 93 93 SE 15 24 29.64 1004 6 10 0.00 0.00
9:43 am 09:43 Cloudy 66 18.9 64 17.8 93 93 SE 14 22 29.63 1003 10 16 0.00 0.00
9:52 am 09:52 Cloudy 66 18.9 64 17.8 93 93 SE 13 20 29.64 1004 7 11 0.00 0.00
10:52 am 10:52 Cloudy 67 19.4 65 18.3 93 93 SE 16 26 29.60 1003 10 16 0.00 0.00
11:08 am 11:08 Cloudy 67 19.4 65 18.3 93 93 SE 21 33 29.59 1002 10 16 0.00 0.00
11:23 am 11:23 Cloudy 68 20 65 18.3 90 90 SE 17 28 29.57 1001 10 16 0.00 0.00
11:52 am 11:52 Cloudy with Light Rain 69 20.6 65 18.3 87 87 SE 17 28 29.59 1002 7 11 0.00 0.00
12:02 pm 12:02 Cloudy with Light Rain 67 19.4 65 18.3 93 93 SSW 31 50 29.62 1003 2 3 0.00 0.00
12:05 pm 12:05 Cloudy with Heavy Rain 64 17.8 63 17.2 96 96 SSW 17 28 29.62 1003 1 2 0.00 0.00
12:07 pm 12:07 Cloudy with Heavy Rain 64 17.8 62 16.7 93 93 SSW 17 28 29.62 1003 1 1 0.07 1.78
12:16 pm 12:16 Cloudy with Rain 64 17.8 63 17.2 96 96 S 12 19 29.62 1003 2 3 0.27 6.86
12:23 pm 12:23 Cloudy with Rain 64 17.8 63 17.2 96 96 S 13 20 29.63 1004 4 6 0.30 7.62
12:49 pm 12:49 Cloudy 64 18 63 17 94 94 S 14 22 29.65 1004 10 16 0.31 7.87
12:52 pm 12:52 Cloudy 65 18.3 63 17.2 93 93 S 14 22 29.65 1004 10 16 0.31 7.87
1:14 pm 13:14 Cloudy 67 19.4 64 17.8 91 91 SSW 14 22 29.66 1004 10 16 0.00 0.00
1:52 pm 13:52 Cloudy 68 20 63 17.2 84 84 SSW 15 24 29.65 1004 10 16 0.00 0.00
2:11 pm 14:11 Cloudy 68 20 63 17.2 84 84 S 17 28 29.63 1004 10 16 0.00 0.00
2:31 pm 14:31 Mostly Cloudy 71 21.7 63 17.2 76 76 S 17 28 29.62 1003 10 16 0.00 0.00
2:52 pm 14:52 Partly Cloudy 71 21.7 62 16.7 73 73 S 17 28 29.63 1003 10 16 0.00 0.00
3:52 pm 15:52 Cloudy 69 20.6 60 15.6 73 73 SW 13 20 29.64 1004 10 16 0.00 0.00
4:52 pm 16:52 Mostly Cloudy 71 21.7 59 15 66 66 SSW 15 24 29.62 1003 10 16 0.00 0.00
5:52 pm 17:52 Cloudy 70 21.1 58 14.4 66 66 S 18 30 29.64 1004 10 16 0.00 0.00
6:52 pm 18:52 Partly Cloudy 69 20.6 57 13.9 66 66 SW 14 22 29.65 1004 10 16 0.00 0.00
7:52 pm 19:52 Cloudy 66 18.9 57 13.9 73 73 SW 7 11 29.66 1005 10 16 0.00 0.00
8:52 pm 20:52 Mostly Cloudy 63 17.2 55 12.8 76 76 WSW 8 13 29.69 1005 10 16 0.00 0.00
9:52 pm 21:52 Mostly Cloudy 61 16.1 55 12.8 81 81 SW 12 19 29.71 1006 10 16 0.00 0.00
10:52 pm 22:52 Cloudy 59 15 53 11.7 81 81 SSW 9 15 29.71 1006 10 16 0.00 0.00
11:52 pm 23:52 Partly Cloudy 56 13.3 52 11.1 87 87 S 7 11 29.70 1006 10 16 0.00 0.00

Powered by AerisWeather